GFSNIL_925_spd_198.txt.gz
Wind_Speed
30 27 27 27 27 25 26 24 20 19 19 19 18 17 18 19 18 18 18 16 15 14
32 29 28 27 28 26 25 25 22 21 21 21 20 19 18 19 19 18 19 19 17 15
33 31 29 28 28 26 24 23 21 20 20 20 20 20 20 21 19 18 17 17 19 19
32 31 30 30 31 27 23 22 18 18 20 22 23 23 23 23 22 20 20 18 17 18
32 30 31 31 32 29 27 22 19 18 18 20 22 22 21 23 24 23 22 20 18 19
34 33 34 33 32 30 28 27 24 21 20 22 23 24 22 25 25 25 24 22 21 22
39 37 36 35 33 30 30 27 26 25 22 21 21 23 24 24 25 24 25 25 23 23
32 32 33 36 35 33 30 31 30 27 25 25 25 26 26 25 26 27 27 26 26 24
33 33 34 36 36 35 35 34 31 30 30 31 31 29 27 26 28 29 28 26 26 25
35 28 32 35 34 36 36 35 35 34 32 31 30 29 28 17 17 23 32 25 24 23
35 36 36 30 34 35 34 34 33 31 30 28 28 24 22 16 22 26 29 22 16 21
41 27 27 29 32 33 31 29 29 29 27 25 24 22 21 18 19 22 19 16 16 18
33 31 33 36 35 33 32 32 29 27 23 20 20 18 17 15 15 15 15 14 14 12
33 36 38 34 32 31 28 27 25 24 21 19 17 16 15 14 14 14 13 11 9 8

GFSNIL_925_spd_201.txt.gz
Wind_Speed
26 23 23 21 20 20 19 20 18 21 20 19 18 17 16 13 13 12 11 11 10 9
26 25 22 20 20 19 19 18 20 21 19 16 17 17 15 14 14 13 12 12 11 12
25 24 22 21 21 20 19 21 18 22 19 19 19 19 20 16 14 13 12 11 11 11
25 24 23 22 22 22 21 21 22 20 18 19 18 19 19 19 17 14 14 12 12 12
24 24 24 23 22 23 23 22 22 21 18 18 19 17 18 18 15 17 17 15 13 14
25 24 25 24 23 23 24 23 21 20 19 16 16 17 17 17 15 15 15 16 15 15
26 26 25 24 24 24 27 25 24 24 21 19 18 18 18 16 15 17 16 16 16 17
29 27 24 24 26 26 25 27 26 24 24 23 21 18 18 18 18 16 14 15 18 19
25 22 23 25 25 26 27 26 24 25 26 24 23 22 24 20 17 18 16 16 18 20
18 17 17 20 22 25 29 26 25 25 24 25 24 27 27 24 23 19 20 18 19 21
27 21 14 25 28 27 24 25 24 23 25 25 25 28 28 25 25 26 25 22 23 27
35 33 30 38 29 28 24 22 24 25 24 25 25 27 26 23 22 24 27 25 26 20
36 41 36 36 31 27 22 24 21 21 22 24 23 24 23 22 20 21 19 17 19 19
31 32 28 26 18 27 25 21 19 21 19 19 19 21 23 22 20 20 16 18 16 13

GFSNIL_925_spd_207.txt.gz
Wind_Speed
22 20 19 20 20 21 19 22 18 23 21 18 16 15 13 12 10 12 9 9 9 10
24 23 20 21 21 18 19 22 19 24 22 21 19 18 17 16 13 12 9 10 11 12
25 24 21 20 22 22 20 22 19 21 20 21 20 19 18 18 17 15 14 15 14 13
26 25 23 21 21 21 21 19 20 21 22 22 19 20 20 19 17 19 17 16 12 13
26 26 25 25 22 22 22 21 21 19 20 20 21 22 21 20 19 17 16 17 16 17
27 27 26 25 24 24 24 24 23 24 23 23 22 21 21 22 22 21 19 19 18 18
29 29 28 27 27 27 27 26 26 25 25 24 23 23 23 22 21 21 20 21 20 19
28 28 28 27 29 27 27 28 27 25 25 25 24 24 22 20 22 22 22 22 22 20
24 27 27 26 27 28 27 26 27 27 27 25 25 25 24 23 20 20 19 22 21 18
25 26 27 27 26 27 28 27 26 27 27 26 25 23 21 20 21 19 20 21 20 19
25 26 26 27 28 27 27 28 28 28 28 27 27 27 26 25 21 22 23 21 21 21
25 25 26 27 28 28 28 28 28 29 29 30 29 29 30 28 24 24 24 24 23 23
24 25 25 26 27 28 28 28 28 28 29 31 30 30 30 31 26 24 23 23 26 26
20 24 24 26 26 26 27 28 27 26 26 28 30 26 31 31 29 25 23 23 17 19

GFSNIL_925_spd_210.txt.gz
Wind_Speed
24 22 21 22 19 24 23 20 17 25 20 19 16 16 12 12 11 11 11 10 9 11
26 25 23 24 25 22 23 23 23 22 26 21 19 16 16 16 17 14 15 14 13 12
26 25 26 21 25 26 21 21 21 29 28 24 23 21 20 18 19 19 15 14 15 15
27 27 26 22 26 26 24 22 25 21 22 23 23 22 21 21 19 17 21 19 18 12
26 27 27 28 23 27 28 25 23 23 24 24 24 22 22 23 23 21 17 20 18 14
28 28 28 29 27 27 27 25 23 26 24 24 26 23 23 22 22 23 19 18 18 19
30 29 29 28 30 27 29 27 27 25 29 29 26 25 24 24 24 22 20 19 20 21
30 30 28 29 30 31 30 30 28 28 27 28 26 26 25 25 23 22 23 23 22 20
24 30 30 30 29 31 29 30 30 30 28 28 28 29 29 30 28 26 24 23 22 23
16 21 27 29 30 29 31 29 29 30 31 30 30 30 31 30 28 24 23 22 21 20
17 18 22 29 31 31 30 31 31 30 32 32 33 34 31 27 29 25 25 24 22 21
12 13 16 16 30 33 32 31 31 32 32 33 34 36 37 31 26 25 25 23 23 22
26 35 15 14 23 37 35 34 31 31 32 34 32 32 35 36 30 24 22 24 27 27
23 22 18 26 28 59 44 32 33 33 32 32 34 32 36 36 35 27 22 22 23 27

GFSNIL_925_spd_216.txt.gz
Wind_Speed
30 30 30 29 28 29 30 30 29 27 25 23 21 20 18 18 18 16 14 13 12 10
33 34 31 32 30 31 28 28 30 29 30 29 26 24 23 21 21 19 18 17 14 14
35 37 33 30 30 30 33 28 27 30 31 30 32 29 27 26 24 22 21 18 16 17
35 36 37 35 33 32 30 31 30 31 29 29 31 34 31 29 27 26 24 23 19 17
32 32 35 36 35 33 33 31 30 31 32 32 31 33 33 32 31 30 27 28 24 24
35 32 34 37 37 36 35 33 33 33 33 34 30 33 35 35 34 34 32 28 25 26
36 38 36 35 38 37 37 37 33 33 33 33 34 34 36 38 35 35 33 33 33 28
38 38 36 34 32 30 36 38 38 34 36 35 33 33 36 37 35 33 33 34 34 34
18 19 35 36 35 37 35 38 38 38 37 35 34 35 36 36 36 35 35 35 33 31
17 17 18 18 36 38 39 37 37 39 38 37 36 34 33 33 33 33 35 35 34 35
17 18 19 17 18 16 23 28 28 33 36 34 34 33 31 30 31 32 34 36 37 36
15 16 21 22 21 18 11 7 18 18 12 5 6 7 7 20 31 36 36 36 37 38
18 14 17 21 21 20 12 11 13 14 10 24 44 44 41 34 23 35 36 33 37 41
27 19 16 17 18 19 19 18 16 20 24 26 40 36 42 30 22 28 31 30 31 38